 ,�O�C���x[��],����1,�O�C���x[��],����2,���ԉ��x[��],����3,���Ԏ��x[��],����4,�m��2(��󒲎�)���x[��],����5,����[��],����6
2003/11/1 0:00,11.1,0 ,81,0 ,21.5,0 ,62,0 ,21.2,0 ,16.7,0
2003/11/1 0:15,11,0 ,81,0 ,21.4,0 ,58,0 ,21.1,0 ,16.7,0
2003/11/1 0:30,10.9,0 ,81,0 ,21.3,0 ,61,0 ,21.1,0 ,16.8,0
2003/11/1 0:45,10.9,0 ,81,0 ,21.2,0 ,58,0 ,21,0 ,16.9,0
2003/11/1 1:00,10.8,0 ,81,0 ,21.2,0 ,60,0 ,21,0 ,17,0
2003/11/1 1:15,10.7,0 ,82,0 ,21.1,0 ,57,0 ,20.9,0 ,17.1,0
2003/11/1 1:30,10.6,0 ,82,0 ,21.1,0 ,60,0 ,20.9,0 ,17.1,0
2003/11/1 1:45,10.6,0 ,82,0 ,21,0 ,57,0 ,20.8,0 ,17.2,0
2003/11/1 2:00,10.5,0 ,82,0 ,21,0 ,60,0 ,20.7,0 ,17.3,0
2003/11/1 2:15,10.4,0 ,82,0 ,20.9,0 ,57,0 ,20.7,0 ,17.4,0
2003/11/1 2:30,10.4,0 ,81,0 ,21,0 ,60,0 ,20.6,0 ,17.4,0
2003/11/1 2:45,10.5,0 ,81,0 ,20.8,0 ,57,0 ,20.6,0 ,17.5,0
2003/11/1 3:00,10.5,0 ,81,0 ,20.9,0 ,60,0 ,20.5,0 ,17.6,0
2003/11/1 3:15,10.4,0 ,82,0 ,20.7,0 ,57,0 ,20.5,0 ,17.6,0
2003/11/1 3:30,10.3,0 ,82,0 ,20.8,0 ,59,0 ,20.4,0 ,17.7,0
2003/11/1 3:45,10.2,0 ,82,0 ,20.7,0 ,57,0 ,20.4,0 ,17.7,0
2003/11/1 4:00,10.2,0 ,82,0 ,20.7,0 ,59,0 ,20.3,0 ,17.8,0
2003/11/1 4:15,10.1,0 ,83,0 ,20.6,0 ,57,0 ,20.3,0 ,17.9,0
2003/11/1 4:30,10.1,0 ,84,0 ,20.7,0 ,59,0 ,20.3,0 ,17.9,0
2003/11/1 4:45,10,0 ,84,0 ,20.5,0 ,57,0 ,20.2,0 ,18,0
2003/11/1 5:00,10,0 ,84,0 ,20.6,0 ,59,0 ,20.2,0 ,18,0
2003/11/1 5:15,10,0 ,85,0 ,20.5,0 ,57,0 ,20.1,0 ,18.1,0
2003/11/1 5:30,10,0 ,85,0 ,20.6,0 ,59,0 ,20.1,0 ,18.1,0
2003/11/1 5:45,10,0 ,86,0 ,20.5,0 ,56,0 ,20.1,0 ,18.2,0
2003/11/1 6:00,9.9,0 ,86,0 ,20.6,0 ,59,0 ,20,0 ,18.2,0
2003/11/1 6:15,9.9,0 ,85,0 ,20.4,0 ,56,0 ,20,0 ,18.2,0
2003/11/1 6:30,9.9,0 ,84,0 ,20.5,0 ,59,0 ,20,0 ,18.3,0
2003/11/1 6:45,10,0 ,83,0 ,20.4,0 ,57,0 ,20,0 ,17.4,0
2003/11/1 7:00,10,0 ,82,0 ,20.6,0 ,60,0 ,20,0 ,16.7,0
2003/11/1 7:15,10.2,0 ,82,0 ,20.6,0 ,58,0 ,20,0 ,16.6,0
2003/11/1 7:30,10.3,0 ,82,0 ,20.7,0 ,60,0 ,20.2,0 ,16.7,0
2003/11/1 7:45,10.8,0 ,78,0 ,20.6,0 ,58,0 ,20.2,0 ,16.7,0
2003/11/1 8:00,11.6,0 ,73,0 ,21,0 ,65,0 ,20.3,0 ,16.8,0
2003/11/1 8:15,11.6,0 ,75,0 ,22.2,0 ,55,0 ,20.5,0 ,16.9,0
2003/11/1 8:30,11.5,0 ,77,0 ,23,0 ,55,0 ,20.9,0 ,17,0
2003/11/1 8:45,11.7,0 ,78,0 ,23.5,0 ,50,0 ,21.2,0 ,17,0
2003/11/1 9:00,12,0 ,78,0 ,23.6,0 ,56,0 ,22,0 ,17.1,0
2003/11/1 9:15,12.5,0 ,77,0 ,23.7,0 ,53,0 ,22,0 ,17.2,0
2003/11/1 9:30,12.9,0 ,75,0 ,23.8,0 ,56,0 ,22.1,0 ,15.7,0
2003/11/1 9:45,13.3,0 ,74,0 ,23.8,0 ,53,0 ,22.2,0 ,15.8,0
2003/11/1 10:00,14.2,0 ,72,0 ,23.8,0 ,56,0 ,22.2,0 ,15.9,0
2003/11/1 10:15,15.1,0 ,72,0 ,23.8,0 ,53,0 ,22.3,0 ,15.4,0
2003/11/1 10:30,16.2,0 ,71,0 ,23.8,0 ,56,0 ,22.4,0 ,15.5,0
2003/11/1 10:45,18.9,0 ,61,0 ,22.1,0 ,49,0 ,22.1,0 ,15.6,0
2003/11/1 11:00,21.4,0 ,50,0 ,21.7,0 ,51,0 ,21.8,0 ,15.7,0
2003/11/1 11:15,20.6,0 ,52,0 ,21.4,0 ,49,0 ,21.6,0 ,15.8,0
2003/11/1 11:30,19.5,0 ,54,0 ,21.4,0 ,52,0 ,21.4,0 ,15.9,0
2003/11/1 11:45,19,0 ,54,0 ,20.8,0 ,50,0 ,21.2,0 ,15.5,0
2003/11/1 12:00,18.8,0 ,53,0 ,21.5,0 ,52,0 ,21,0 ,15.6,0
2003/11/1 12:15,18.8,0 ,53,0 ,21.2,0 ,51,0 ,21,0 ,15.9,0
2003/11/1 12:30,18.9,0 ,53,0 ,21.3,0 ,55,0 ,20.9,0 ,16,0
2003/11/1 12:45,18.9,0 ,52,0 ,21.3,0 ,53,0 ,20.8,0 ,16.1,0
2003/11/1 13:00,18.9,0 ,51,0 ,21.2,0 ,56,0 ,20.7,0 ,16.2,0
2003/11/1 13:15,18.9,0 ,49,0 ,21.1,0 ,54,0 ,20.6,0 ,16.3,0
2003/11/1 13:30,19,0 ,47,0 ,21.2,0 ,56,0 ,20.6,0 ,16.4,0
2003/11/1 13:45,19.2,0 ,47,0 ,21.1,0 ,54,0 ,20.5,0 ,16.5,0
2003/11/1 14:00,19.3,0 ,46,0 ,21.1,0 ,56,0 ,20.4,0 ,16.6,0
2003/11/1 14:15,19.4,0 ,46,0 ,21,0 ,54,0 ,20.4,0 ,16.7,0
2003/11/1 14:30,19.5,0 ,45,0 ,21,0 ,56,0 ,20.3,0 ,16.7,0
2003/11/1 14:45,19.5,0 ,45,0 ,20.9,0 ,54,0 ,20.3,0 ,16.8,0
2003/11/1 15:00,19.5,0 ,45,0 ,21,0 ,56,0 ,20.2,0 ,16.9,0
2003/11/1 15:15,19.5,0 ,45,0 ,20.9,0 ,53,0 ,20.2,0 ,17,0
2003/11/1 15:30,19.6,0 ,45,0 ,21,0 ,56,0 ,20.2,0 ,17.1,0
2003/11/1 15:45,19.5,0 ,45,0 ,20.8,0 ,53,0 ,20.1,0 ,17.1,0
2003/11/1 16:00,19.5,0 ,45,0 ,20.9,0 ,56,0 ,20.1,0 ,17.2,0
2003/11/1 16:15,19.4,0 ,53,0 ,20.7,0 ,53,0 ,20.1,0 ,17.3,0
2003/11/1 16:30,19.2,0 ,60,0 ,20.8,0 ,56,0 ,20,0 ,17.3,0
2003/11/1 16:45,18.8,0 ,63,0 ,20.7,0 ,54,0 ,20,0 ,17.4,0
2003/11/1 17:00,18.4,0 ,65,0 ,20.7,0 ,57,0 ,20,0 ,17.5,0
2003/11/1 17:15,18,0 ,69,0 ,20.6,0 ,55,0 ,19.9,0 ,17.5,0
2003/11/1 17:30,17.7,0 ,72,0 ,20.7,0 ,58,0 ,19.9,0 ,17.6,0
2003/11/1 17:45,17.1,0 ,73,0 ,20.5,0 ,55,0 ,19.9,0 ,17.6,0
2003/11/1 18:00,16.8,0 ,74,0 ,20.6,0 ,58,0 ,19.9,0 ,17.7,0
2003/11/1 18:15,16.6,0 ,73,0 ,20.5,0 ,56,0 ,19.9,0 ,17.8,0
2003/11/1 18:30,16.3,0 ,72,0 ,20.6,0 ,58,0 ,19.8,0 ,17.8,0
2003/11/1 18:45,15.5,0 ,78,0 ,21.4,0 ,54,0 ,19.9,0 ,15.7,0
2003/11/1 19:00,14.3,0 ,83,0 ,22.3,0 ,55,0 ,20.4,0 ,15.5,0
2003/11/1 19:15,13.5,0 ,86,0 ,22.9,0 ,51,0 ,20.9,0 ,15.6,0
2003/11/1 19:30,13,0 ,88,0 ,23.1,0 ,53,0 ,21.2,0 ,15.7,0
2003/11/1 19:45,13,0 ,88,0 ,23.3,0 ,50,0 ,21.4,0 ,15.8,0
2003/11/1 20:00,12.8,0 ,88,0 ,23.7,0 ,53,0 ,21.7,0 ,15.9,0
2003/11/1 20:15,12.7,0 ,88,0 ,23.7,0 ,50,0 ,21.9,0 ,16,0
2003/11/1 20:30,12.9,0 ,88,0 ,22.8,0 ,56,0 ,21.9,0 ,15.4,0
2003/11/1 20:45,13.4,0 ,85,0 ,22.1,0 ,55,0 ,21.7,0 ,15.5,0
2003/11/1 21:00,13.6,0 ,82,0 ,21.9,0 ,60,0 ,21.5,0 ,15.7,0
2003/11/1 21:15,13.8,0 ,83,0 ,21.8,0 ,59,0 ,21.6,0 ,15.8,0
2003/11/1 21:30,13.9,0 ,83,0 ,21.8,0 ,61,0 ,21.5,0 ,15.9,0
2003/11/1 21:45,13.3,0 ,86,0 ,22.8,0 ,59,0 ,21.7,0 ,16,0
2003/11/1 22:00,12.7,0 ,89,0 ,23.5,0 ,62,0 ,22.1,0 ,16.1,0
2003/11/1 22:15,12.4,0 ,90,0 ,23.5,0 ,59,0 ,22.3,0 ,16.2,0
2003/11/1 22:30,12.2,0 ,90,0 ,23.7,0 ,62,0 ,22.5,0 ,16.3,0
2003/11/1 22:45,12,0 ,91,0 ,23.6,0 ,59,0 ,22.6,0 ,16.4,0
2003/11/1 23:00,11.9,0 ,91,0 ,23.8,0 ,62,0 ,22.7,0 ,16.6,0
2003/11/1 23:15,12,0 ,89,0 ,22.9,0 ,60,0 ,22.7,0 ,16.5,0
2003/11/1 23:30,12.3,0 ,86,0 ,22.4,0 ,65,0 ,22.5,0 ,16.6,0
2003/11/1 23:45,12.5,0 ,85,0 ,22.2,0 ,62,0 ,22.3,0 ,16.7,0
2003/11/2 0:00,12.6,0 ,84,0 ,22.1,0 ,65,0 ,22.1,0 ,16.8,0
2003/11/2 0:15,12.6,0 ,84,0 ,21.9,0 ,62,0 ,22,0 ,16.9,0
2003/11/2 0:30,12.6,0 ,84,0 ,21.9,0 ,65,0 ,21.9,0 ,16.8,0
2003/11/2 0:45,12.4,0 ,85,0 ,21.7,0 ,62,0 ,21.8,0 ,16.9,0
2003/11/2 1:00,12.4,0 ,86,0 ,21.7,0 ,65,0 ,21.7,0 ,17,0
2003/11/2 1:15,12.4,0 ,88,0 ,21.5,0 ,62,0 ,21.6,0 ,17.1,0
2003/11/2 1:30,12.4,0 ,90,0 ,21.5,0 ,65,0 ,21.5,0 ,17.2,0
2003/11/2 1:45,12.4,0 ,90,0 ,21.5,0 ,62,0 ,21.4,0 ,17.3,0
2003/11/2 2:00,12.4,0 ,90,0 ,21.5,0 ,65,0 ,21.4,0 ,17.4,0
2003/11/2 2:15,12.2,0 ,91,0 ,21.3,0 ,62,0 ,21.3,0 ,17.4,0
2003/11/2 2:30,12,0 ,91,0 ,21.3,0 ,64,0 ,21.2,0 ,17.5,0
2003/11/2 2:45,11.9,0 ,92,0 ,21.2,0 ,61,0 ,21.1,0 ,17.6,0
2003/11/2 3:00,11.8,0 ,92,0 ,21.3,0 ,64,0 ,21.1,0 ,17.7,0
2003/11/2 3:15,11.8,0 ,92,0 ,21.1,0 ,61,0 ,21,0 ,17.7,0
2003/11/2 3:30,11.7,0 ,91,0 ,21.2,0 ,64,0 ,20.9,0 ,17.8,0
2003/11/2 3:45,11.6,0 ,90,0 ,21.1,0 ,61,0 ,20.9,0 ,17.9,0
2003/11/2 4:00,11.5,0 ,89,0 ,21.2,0 ,63,0 ,20.8,0 ,18,0
2003/11/2 4:15,11.4,0 ,89,0 ,21,0 ,61,0 ,20.8,0 ,18,0
2003/11/2 4:30,11.4,0 ,89,0 ,21.1,0 ,63,0 ,20.7,0 ,18.1,0
2003/11/2 4:45,11.3,0 ,89,0 ,20.9,0 ,61,0 ,20.7,0 ,18.1,0
2003/11/2 5:00,11.2,0 ,89,0 ,21,0 ,63,0 ,20.7,0 ,18.2,0
2003/11/2 5:15,11.1,0 ,89,0 ,20.9,0 ,60,0 ,20.7,0 ,18.3,0
2003/11/2 5:30,11,0 ,89,0 ,21,0 ,63,0 ,20.7,0 ,18.3,0
2003/11/2 5:45,10.9,0 ,88,0 ,20.9,0 ,60,0 ,20.7,0 ,18.4,0
2003/11/2 6:00,10.9,0 ,87,0 ,21,0 ,63,0 ,20.7,0 ,18.4,0
2003/11/2 6:15,10.8,0 ,88,0 ,20.8,0 ,60,0 ,20.8,0 ,18.5,0
2003/11/2 6:30,10.8,0 ,89,0 ,21,0 ,63,0 ,20.8,0 ,18.5,0
2003/11/2 6:45,10.9,0 ,88,0 ,21.1,0 ,62,0 ,20.8,0 ,18.6,0
2003/11/2 7:00,10.8,0 ,86,0 ,22.3,0 ,64,0 ,21,0 ,17.2,0
2003/11/2 7:15,10.5,0 ,86,0 ,23.3,0 ,58,0 ,21.4,0 ,15.7,0
2003/11/2 7:30,10.8,0 ,85,0 ,23.9,0 ,60,0 ,21.8,0 ,15.8,0
2003/11/2 7:45,11.4,0 ,84,0 ,23.4,0 ,55,0 ,22,0 ,15.9,0
2003/11/2 8:00,11.8,0 ,83,0 ,23.7,0 ,54,0 ,22.1,0 ,16,0
2003/11/2 8:15,12,0 ,81,0 ,24.1,0 ,49,0 ,22.3,0 ,16.1,0
2003/11/2 8:30,12.6,0 ,78,0 ,23.8,0 ,52,0 ,22.4,0 ,16.2,0
2003/11/2 8:45,13.1,0 ,77,0 ,24.1,0 ,48,0 ,22.4,0 ,16.3,0
2003/11/2 9:00,13.5,0 ,76,0 ,24,0 ,51,0 ,22.5,0 ,16.4,0
2003/11/2 9:15,14.1,0 ,76,0 ,24,0 ,49,0 ,22.6,0 ,16.5,0
2003/11/2 9:30,14.6,0 ,75,0 ,24.2,0 ,53,0 ,22.6,0 ,16.6,0
2003/11/2 9:45,15.3,0 ,68,0 ,24.2,0 ,51,0 ,22.7,0 ,16.7,0
2003/11/2 10:00,16.7,0 ,60,0 ,22.8,0 ,57,0 ,22.6,0 ,16.1,0
2003/11/2 10:15,19,0 ,57,0 ,22.6,0 ,54,0 ,22.3,0 ,16.2,0
2003/11/2 10:30,21.3,0 ,53,0 ,22.4,0 ,58,0 ,22.1,0 ,16.3,0
2003/11/2 10:45,23.2,0 ,51,0 ,22.2,0 ,55,0 ,22,0 ,16.4,0
2003/11/2 11:00,24.9,0 ,48,0 ,22.1,0 ,59,0 ,21.8,0 ,16.5,0
2003/11/2 11:15,23.4,0 ,50,0 ,22,0 ,57,0 ,21.7,0 ,16.6,0
2003/11/2 11:30,21.6,0 ,52,0 ,22,0 ,59,0 ,21.6,0 ,16.7,0
2003/11/2 11:45,20.7,0 ,51,0 ,21.9,0 ,57,0 ,21.5,0 ,16.8,0
2003/11/2 12:00,20.3,0 ,49,0 ,21.9,0 ,59,0 ,21.4,0 ,16.9,0
2003/11/2 12:15,20.3,0 ,47,0 ,21.9,0 ,58,0 ,21.3,0 ,15.9,0
2003/11/2 12:30,20.5,0 ,44,0 ,21.9,0 ,60,0 ,21.3,0 ,16,0
2003/11/2 12:45,20.6,0 ,44,0 ,21.7,0 ,57,0 ,21.2,0 ,16.1,0
2003/11/2 13:00,20.7,0 ,44,0 ,21.7,0 ,59,0 ,21.1,0 ,16.2,0
2003/11/2 13:15,20.8,0 ,43,0 ,21.6,0 ,57,0 ,21.1,0 ,16.3,0
2003/11/2 13:30,21.1,0 ,41,0 ,21.6,0 ,59,0 ,21,0 ,16.4,0
2003/11/2 13:45,21.4,0 ,40,0 ,21.5,0 ,56,0 ,20.9,0 ,16.5,0
2003/11/2 14:00,21.6,0 ,39,0 ,21.6,0 ,58,0 ,20.9,0 ,16.6,0
2003/11/2 14:15,22,0 ,38,0 ,21.5,0 ,56,0 ,20.8,0 ,16.7,0
2003/11/2 14:30,21.9,0 ,37,0 ,21.5,0 ,58,0 ,20.8,0 ,16.8,0
2003/11/2 14:45,22.2,0 ,38,0 ,21.4,0 ,55,0 ,20.8,0 ,16.9,0
2003/11/2 15:00,22.6,0 ,38,0 ,21.5,0 ,58,0 ,20.7,0 ,17,0
2003/11/2 15:15,22.5,0 ,40,0 ,21.4,0 ,55,0 ,20.7,0 ,17.1,0
2003/11/2 15:30,22.5,0 ,42,0 ,21.5,0 ,58,0 ,20.7,0 ,17.1,0
2003/11/2 15:45,22.2,0 ,45,0 ,21.3,0 ,55,0 ,20.6,0 ,17.2,0
2003/11/2 16:00,22,0 ,48,0 ,21.4,0 ,58,0 ,20.6,0 ,17.3,0
2003/11/2 16:15,21.3,0 ,51,0 ,21.3,0 ,55,0 ,20.6,0 ,17.4,0
2003/11/2 16:30,20.8,0 ,53,0 ,21.4,0 ,58,0 ,20.5,0 ,17.4,0
2003/11/2 16:45,20.3,0 ,55,0 ,21.2,0 ,56,0 ,20.5,0 ,17.5,0
2003/11/2 17:00,19.9,0 ,57,0 ,21.3,0 ,59,0 ,20.5,0 ,17.6,0
2003/11/2 17:15,19.7,0 ,59,0 ,21.1,0 ,57,0 ,20.4,0 ,16.3,0
2003/11/2 17:30,19.5,0 ,60,0 ,21.5,0 ,61,0 ,20.5,0 ,16.4,0
2003/11/2 17:45,19.3,0 ,61,0 ,21.5,0 ,63,0 ,20.6,0 ,16.5,0
2003/11/2 18:00,19.1,0 ,62,0 ,21.6,0 ,64,0 ,20.8,0 ,16.3,0
2003/11/2 18:15,18.9,0 ,66,0 ,21.6,0 ,61,0 ,20.7,0 ,16.2,0
2003/11/2 18:30,18.5,0 ,69,0 ,21.5,0 ,63,0 ,20.7,0 ,15.9,0
2003/11/2 18:45,18,0 ,71,0 ,21.5,0 ,61,0 ,20.7,0 ,16,0
2003/11/2 19:00,17.8,0 ,72,0 ,21.5,0 ,66,0 ,20.8,0 ,15.8,0
2003/11/2 19:15,17.5,0 ,73,0 ,21.3,0 ,63,0 ,20.8,0 ,16,0
2003/11/2 19:30,17.3,0 ,74,0 ,21.5,0 ,67,0 ,20.8,0 ,16.1,0
2003/11/2 19:45,17.1,0 ,74,0 ,21.5,0 ,64,0 ,20.9,0 ,16.2,0
2003/11/2 20:00,17.1,0 ,73,0 ,21.6,0 ,67,0 ,21.1,0 ,16.3,0
2003/11/2 20:15,16.8,0 ,75,0 ,21.5,0 ,64,0 ,21.2,0 ,16.4,0
2003/11/2 20:30,16.6,0 ,76,0 ,21.6,0 ,66,0 ,21.1,0 ,16.5,0
2003/11/2 20:45,16.4,0 ,77,0 ,21.5,0 ,63,0 ,21.1,0 ,16.6,0
2003/11/2 21:00,16.2,0 ,78,0 ,21.6,0 ,66,0 ,21.1,0 ,16.7,0
2003/11/2 21:15,16,0 ,78,0 ,21.5,0 ,63,0 ,21.2,0 ,16.8,0
2003/11/2 21:30,15.9,0 ,77,0 ,21.6,0 ,65,0 ,21.2,0 ,16.9,0
2003/11/2 21:45,15.8,0 ,77,0 ,21.5,0 ,63,0 ,21.2,0 ,17,0
2003/11/2 22:00,15.7,0 ,77,0 ,21.6,0 ,66,0 ,21.2,0 ,16.9,0
2003/11/2 22:15,15.5,0 ,78,0 ,21.5,0 ,63,0 ,21.2,0 ,16.9,0
2003/11/2 22:30,15.2,0 ,79,0 ,21.6,0 ,65,0 ,21.2,0 ,17,0
2003/11/2 22:45,15,0 ,79,0 ,21.5,0 ,62,0 ,21.2,0 ,17.1,0
2003/11/2 23:00,14.9,0 ,78,0 ,21.6,0 ,65,0 ,21.2,0 ,17.2,0
2003/11/2 23:15,14.9,0 ,79,0 ,21.5,0 ,62,0 ,21.2,0 ,17.3,0
2003/11/2 23:30,14.7,0 ,80,0 ,21.6,0 ,65,0 ,21.2,0 ,17.3,0
2003/11/2 23:45,14.6,0 ,80,0 ,21.5,0 ,62,0 ,21.2,0 ,17.4,0
2003/11/3 0:00,14.5,0 ,79,0 ,21.6,0 ,65,0 ,21.2,0 ,16.6,0
2003/11/3 0:15,14.4,0 ,80,0 ,21.5,0 ,62,0 ,21.2,0 ,16.7,0
2003/11/3 0:30,14.2,0 ,80,0 ,21.7,0 ,69,0 ,21.4,0 ,16.8,0
2003/11/3 0:45,14.1,0 ,81,0 ,21.5,0 ,65,0 ,21.3,0 ,16.5,0
2003/11/3 1:00,14,0 ,81,0 ,21.5,0 ,66,0 ,21.3,0 ,16.6,0
2003/11/3 1:15,13.7,0 ,81,0 ,21.4,0 ,62,0 ,21.2,0 ,16.6,0
2003/11/3 1:30,13.6,0 ,81,0 ,21.4,0 ,64,0 ,21.1,0 ,16.7,0
2003/11/3 1:45,13.5,0 ,82,0 ,21.3,0 ,61,0 ,21.1,0 ,16.8,0
2003/11/3 2:00,13.5,0 ,82,0 ,21.3,0 ,63,0 ,21,0 ,16.9,0
2003/11/3 2:15,13.4,0 ,82,0 ,21.2,0 ,60,0 ,21,0 ,16.9,0
2003/11/3 2:30,13.4,0 ,81,0 ,21.3,0 ,62,0 ,21,0 ,16.9,0
2003/11/3 2:45,13.3,0 ,83,0 ,21.1,0 ,59,0 ,20.9,0 ,17,0
2003/11/3 3:00,13.1,0 ,84,0 ,21.2,0 ,61,0 ,20.9,0 ,17.1,0
2003/11/3 3:15,12.9,0 ,84,0 ,21.1,0 ,59,0 ,20.9,0 ,17.2,0
2003/11/3 3:30,12.8,0 ,84,0 ,21.1,0 ,61,0 ,20.8,0 ,17.2,0
2003/11/3 3:45,12.7,0 ,85,0 ,21,0 ,58,0 ,20.8,0 ,17.3,0
2003/11/3 4:00,12.6,0 ,85,0 ,21,0 ,60,0 ,20.8,0 ,17.4,0
2003/11/3 4:15,12.6,0 ,85,0 ,20.9,0 ,58,0 ,20.7,0 ,17.5,0
2003/11/3 4:30,12.5,0 ,84,0 ,21,0 ,60,0 ,20.7,0 ,17.4,0
2003/11/3 4:45,12.4,0 ,85,0 ,20.9,0 ,58,0 ,20.7,0 ,17.5,0
2003/11/3 5:00,12.3,0 ,85,0 ,21,0 ,60,0 ,20.6,0 ,17.5,0
2003/11/3 5:15,12.2,0 ,85,0 ,20.8,0 ,57,0 ,20.6,0 ,17.6,0
2003/11/3 5:30,12.1,0 ,84,0 ,21,0 ,59,0 ,20.5,0 ,17.7,0
2003/11/3 5:45,12,0 ,85,0 ,20.8,0 ,56,0 ,20.5,0 ,17.7,0
2003/11/3 6:00,11.8,0 ,86,0 ,20.9,0 ,59,0 ,20.4,0 ,17.8,0
2003/11/3 6:15,11.7,0 ,87,0 ,20.7,0 ,56,0 ,20.4,0 ,17.8,0
2003/11/3 6:30,11.6,0 ,87,0 ,20.9,0 ,58,0 ,20.3,0 ,17.9,0
2003/11/3 6:45,11.7,0 ,86,0 ,20.7,0 ,57,0 ,20.3,0 ,18,0
2003/11/3 7:00,11.9,0 ,85,0 ,21,0 ,60,0 ,20.3,0 ,18,0
2003/11/3 7:15,12.2,0 ,83,0 ,20.9,0 ,57,0 ,20.3,0 ,16.4,0
2003/11/3 7:30,12.6,0 ,81,0 ,21,0 ,60,0 ,20.3,0 ,16.4,0
2003/11/3 7:45,13.1,0 ,79,0 ,21,0 ,58,0 ,20.3,0 ,16.5,0
2003/11/3 8:00,13.7,0 ,77,0 ,21.2,0 ,60,0 ,20.3,0 ,16.6,0
2003/11/3 8:15,14.2,0 ,74,0 ,21.3,0 ,57,0 ,20.3,0 ,16.7,0
2003/11/3 8:30,14.7,0 ,70,0 ,21.5,0 ,60,0 ,20.3,0 ,16.8,0
2003/11/3 8:45,15.2,0 ,68,0 ,21.4,0 ,57,0 ,20.3,0 ,16.9,0
2003/11/3 9:00,15.9,0 ,66,0 ,21.4,0 ,60,0 ,20.3,0 ,16.5,0
2003/11/3 9:15,16,0 ,68,0 ,21.2,0 ,57,0 ,20.3,0 ,16.6,0
2003/11/3 9:30,15.9,0 ,70,0 ,21.2,0 ,59,0 ,20.3,0 ,16.7,0
2003/11/3 9:45,16.1,0 ,71,0 ,20.9,0 ,55,0 ,20.2,0 ,16.8,0
2003/11/3 10:00,16.1,0 ,71,0 ,20.6,0 ,58,0 ,20.2,0 ,16.8,0
2003/11/3 10:15,16,0 ,70,0 ,20.6,0 ,61,0 ,20.3,0 ,16.9,0
2003/11/3 10:30,16,0 ,69,0 ,20.8,0 ,63,0 ,20.3,0 ,17,0
2003/11/3 10:45,14.9,0 ,76,0 ,22.1,0 ,57,0 ,20.5,0 ,17.1,0
2003/11/3 11:00,14.1,0 ,82,0 ,22.4,0 ,63,0 ,20.9,0 ,17.1,0
2003/11/3 11:15,13.7,0 ,79,0 ,22.6,0 ,59,0 ,21.1,0 ,15.8,0
2003/11/3 11:30,14.4,0 ,75,0 ,21.6,0 ,62,0 ,21.1,0 ,15.7,0
2003/11/3 11:45,15,0 ,73,0 ,21.3,0 ,61,0 ,20.9,0 ,15.8,0
2003/11/3 12:00,15.7,0 ,71,0 ,21.2,0 ,64,0 ,20.8,0 ,15.9,0
2003/11/3 12:15,16.1,0 ,72,0 ,21,0 ,62,0 ,20.7,0 ,16,0
2003/11/3 12:30,16.1,0 ,72,0 ,21.1,0 ,64,0 ,20.6,0 ,16.1,0
2003/11/3 12:45,16.4,0 ,71,0 ,21,0 ,62,0 ,20.6,0 ,16.2,0
2003/11/3 13:00,16.7,0 ,70,0 ,21.1,0 ,64,0 ,20.5,0 ,16.3,0
2003/11/3 13:15,17,0 ,68,0 ,21,0 ,61,0 ,20.4,0 ,16.4,0
2003/11/3 13:30,17.3,0 ,66,0 ,21.1,0 ,64,0 ,20.4,0 ,16.5,0
2003/11/3 13:45,17.7,0 ,66,0 ,21,0 ,61,0 ,20.4,0 ,16.6,0
2003/11/3 14:00,18,0 ,66,0 ,21,0 ,64,0 ,20.3,0 ,16.6,0
2003/11/3 14:15,18.1,0 ,67,0 ,20.9,0 ,61,0 ,20.3,0 ,16.7,0
2003/11/3 14:30,18.1,0 ,68,0 ,21,0 ,64,0 ,20.3,0 ,16.8,0
2003/11/3 14:45,18,0 ,69,0 ,20.9,0 ,61,0 ,20.2,0 ,16.9,0
2003/11/3 15:00,17.9,0 ,69,0 ,21,0 ,64,0 ,20.2,0 ,17,0
2003/11/3 15:15,17.8,0 ,70,0 ,20.8,0 ,61,0 ,20.2,0 ,17.1,0
2003/11/3 15:30,17.8,0 ,70,0 ,20.9,0 ,64,0 ,20.2,0 ,17.1,0
2003/11/3 15:45,17.7,0 ,71,0 ,20.7,0 ,62,0 ,20.1,0 ,17.2,0
2003/11/3 16:00,17.6,0 ,71,0 ,20.9,0 ,64,0 ,20.1,0 ,17.3,0
2003/11/3 16:15,17.6,0 ,73,0 ,20.7,0 ,61,0 ,20.1,0 ,16.4,0
2003/11/3 16:30,17.5,0 ,74,0 ,20.9,0 ,64,0 ,20.1,0 ,16.5,0
2003/11/3 16:45,17.4,0 ,75,0 ,20.7,0 ,61,0 ,20,0 ,16.6,0
2003/11/3 17:00,17.3,0 ,76,0 ,20.8,0 ,64,0 ,20,0 ,16.7,0
2003/11/3 17:15,17.3,0 ,77,0 ,20.7,0 ,63,0 ,20,0 ,16.8,0
2003/11/3 17:30,17.3,0 ,77,0 ,20.9,0 ,68,0 ,20,0 ,16.9,0
2003/11/3 17:45,17.2,0 ,79,0 ,20.7,0 ,68,0 ,20,0 ,17,0
2003/11/3 18:00,17.1,0 ,80,0 ,20.8,0 ,69,0 ,20,0 ,17,0
2003/11/3 18:15,17,0 ,80,0 ,20.7,0 ,67,0 ,20,0 ,17.1,0
2003/11/3 18:30,17,0 ,79,0 ,20.8,0 ,69,0 ,20,0 ,17.2,0
2003/11/3 18:45,17,0 ,79,0 ,20.7,0 ,67,0 ,20,0 ,17.3,0
2003/11/3 19:00,17.2,0 ,79,0 ,20.8,0 ,69,0 ,20,0 ,17.3,0
2003/11/3 19:15,17.3,0 ,80,0 ,20.7,0 ,68,0 ,20.1,0 ,17.4,0
2003/11/3 19:30,17.2,0 ,81,0 ,21,0 ,71,0 ,20.1,0 ,17.5,0
2003/11/3 19:45,16.5,0 ,85,0 ,21.9,0 ,65,0 ,20.3,0 ,17.6,0
2003/11/3 20:00,15.5,0 ,89,0 ,22.5,0 ,67,0 ,20.8,0 ,17.6,0
2003/11/3 20:15,15,0 ,90,0 ,23,0 ,64,0 ,21.3,0 ,16.6,0
2003/11/3 20:30,14.8,0 ,91,0 ,23.1,0 ,67,0 ,21.7,0 ,16.7,0
2003/11/3 20:45,14.7,0 ,91,0 ,23.4,0 ,63,0 ,21.9,0 ,16.7,0
2003/11/3 21:00,14.6,0 ,91,0 ,23.7,0 ,66,0 ,22.2,0 ,16.8,0
2003/11/3 21:15,14.6,0 ,91,0 ,23.9,0 ,62,0 ,22.5,0 ,16.9,0
2003/11/3 21:30,14.6,0 ,91,0 ,24.1,0 ,65,0 ,22.8,0 ,15.7,0
2003/11/3 21:45,14.8,0 ,92,0 ,23.9,0 ,63,0 ,23,0 ,15.8,0
2003/11/3 22:00,15,0 ,92,0 ,24.4,0 ,65,0 ,23.3,0 ,15.9,0
2003/11/3 22:15,15,0 ,93,0 ,24.7,0 ,60,0 ,23.4,0 ,16,0
2003/11/3 22:30,15,0 ,94,0 ,23.9,0 ,65,0 ,23.5,0 ,16.2,0
2003/11/3 22:45,15.3,0 ,91,0 ,23.3,0 ,64,0 ,23.4,0 ,16.3,0
2003/11/3 23:00,15.5,0 ,88,0 ,23.1,0 ,67,0 ,23.3,0 ,16.4,0
2003/11/3 23:15,15.7,0 ,88,0 ,22.7,0 ,65,0 ,23.1,0 ,16.6,0
2003/11/3 23:30,15.8,0 ,87,0 ,22.6,0 ,69,0 ,23,0 ,16.7,0
2003/11/3 23:45,15.8,0 ,85,0 ,22.5,0 ,66,0 ,22.8,0 ,16.8,0
2003/11/4 0:00,15.9,0 ,83,0 ,22.4,0 ,69,0 ,22.7,0 ,17,0
2003/11/4 0:15,16.1,0 ,83,0 ,22.2,0 ,66,0 ,22.6,0 ,17.1,0
2003/11/4 0:30,15.9,0 ,82,0 ,22.2,0 ,69,0 ,22.5,0 ,17.2,0
2003/11/4 0:45,16,0 ,84,0 ,22,0 ,66,0 ,22.3,0 ,17.3,0
2003/11/4 1:00,15.8,0 ,85,0 ,22,0 ,68,0 ,22.3,0 ,17.4,0
2003/11/4 1:15,15.8,0 ,80,0 ,21.9,0 ,65,0 ,22.2,0 ,17.5,0
2003/11/4 1:30,15.7,0 ,75,0 ,21.9,0 ,68,0 ,22.1,0 ,17.6,0
2003/11/4 1:45,16.4,0 ,70,0 ,21.8,0 ,66,0 ,22,0 ,17.7,0
2003/11/4 2:00,17.2,0 ,65,0 ,21.8,0 ,69,0 ,21.9,0 ,17.8,0
2003/11/4 2:15,17.6,0 ,65,0 ,21.7,0 ,66,0 ,21.9,0 ,17.9,0
2003/11/4 2:30,17.8,0 ,64,0 ,21.8,0 ,68,0 ,21.8,0 ,17.9,0
2003/11/4 2:45,17.7,0 ,67,0 ,21.6,0 ,65,0 ,21.7,0 ,18,0
2003/11/4 3:00,17.4,0 ,69,0 ,21.6,0 ,68,0 ,21.6,0 ,18.1,0
2003/11/4 3:15,17.1,0 ,67,0 ,21.5,0 ,65,0 ,21.6,0 ,18.2,0
2003/11/4 3:30,16.9,0 ,64,0 ,21.5,0 ,68,0 ,21.5,0 ,18.2,0
2003/11/4 3:45,16.6,0 ,60,0 ,21.5,0 ,64,0 ,21.4,0 ,18.3,0
2003/11/4 4:00,16.5,0 ,56,0 ,21.5,0 ,67,0 ,21.4,0 ,18.4,0
2003/11/4 4:15,16.3,0 ,54,0 ,21.4,0 ,63,0 ,21.4,0 ,18.4,0
2003/11/4 4:30,16.1,0 ,51,0 ,21.5,0 ,65,0 ,21.3,0 ,18.5,0
2003/11/4 4:45,16,0 ,51,0 ,21.4,0 ,62,0 ,21.3,0 ,18.5,0
2003/11/4 5:00,15.8,0 ,50,0 ,21.5,0 ,67,0 ,21.2,0 ,18.6,0
2003/11/4 5:15,15.8,0 ,54,0 ,21.3,0 ,64,0 ,21.2,0 ,18.6,0
2003/11/4 5:30,15.2,0 ,57,0 ,22.3,0 ,62,0 ,21.2,0 ,17.9,0
2003/11/4 5:45,14.4,0 ,56,0 ,23.3,0 ,55,0 ,21.7,0 ,17.9,0
2003/11/4 6:00,14.2,0 ,54,0 ,23.6,0 ,57,0 ,22.1,0 ,16.7,0
2003/11/4 6:15,14.2,0 ,54,0 ,23.6,0 ,53,0 ,22.4,0 ,16.8,0
2003/11/4 6:30,13.9,0 ,53,0 ,23.8,0 ,53,0 ,22.5,0 ,16.9,0
2003/11/4 6:45,13.7,0 ,53,0 ,24.1,0 ,49,0 ,22.7,0 ,17,0
2003/11/4 7:00,13.7,0 ,52,0 ,23.9,0 ,52,0 ,22.8,0 ,16.5,0
2003/11/4 7:15,13.6,0 ,50,0 ,24,0 ,49,0 ,22.8,0 ,16.6,0
2003/11/4 7:30,13.7,0 ,47,0 ,24,0 ,52,0 ,23,0 ,16.7,0
2003/11/4 7:45,14.4,0 ,45,0 ,22.9,0 ,53,0 ,22.7,0 ,16.8,0
2003/11/4 8:00,15,0 ,42,0 ,22.8,0 ,55,0 ,22.5,0 ,16.9,0
2003/11/4 8:15,15.5,0 ,40,0 ,22.7,0 ,53,0 ,22.3,0 ,17,0
2003/11/4 8:30,16,0 ,38,0 ,22.6,0 ,54,0 ,22.2,0 ,17.1,0
2003/11/4 8:45,16.2,0 ,37,0 ,22.5,0 ,51,0 ,22.1,0 ,17.2,0
2003/11/4 9:00,16.4,0 ,36,0 ,22.4,0 ,53,0 ,22,0 ,17.3,0
2003/11/4 9:15,16.5,0 ,35,0 ,22.3,0 ,50,0 ,21.8,0 ,17.4,0
2003/11/4 9:30,16.9,0 ,33,0 ,22.3,0 ,53,0 ,21.7,0 ,17.5,0
2003/11/4 9:45,17.4,0 ,32,0 ,22,0 ,51,0 ,21.6,0 ,17.6,0
2003/11/4 10:00,17.8,0 ,31,0 ,22,0 ,54,0 ,21.5,0 ,17.7,0
2003/11/4 10:15,18.5,0 ,30,0 ,21.8,0 ,52,0 ,21.4,0 ,17.7,0
2003/11/4 10:30,18.8,0 ,28,0 ,21.9,0 ,54,0 ,21.3,0 ,17.8,0
2003/11/4 10:45,20.3,0 ,27,0 ,21.7,0 ,51,0 ,21.2,0 ,17.9,0
2003/11/4 11:00,22.1,0 ,26,0 ,21.8,0 ,53,0 ,21.1,0 ,18,0
2003/11/4 11:15,20.2,0 ,25,0 ,21.6,0 ,51,0 ,21,0 ,18,0
2003/11/4 11:30,18.4,0 ,24,0 ,21.7,0 ,53,0 ,21,0 ,18.1,0
2003/11/4 11:45,17.5,0 ,24,0 ,21.5,0 ,50,0 ,20.9,0 ,18.2,0
2003/11/4 12:00,17.1,0 ,24,0 ,21.6,0 ,52,0 ,20.8,0 ,18.2,0
2003/11/4 12:15,16.9,0 ,26,0 ,21.5,0 ,49,0 ,20.8,0 ,18.3,0
2003/11/4 12:30,16.8,0 ,27,0 ,21.6,0 ,51,0 ,20.7,0 ,18.3,0
2003/11/4 12:45,16.8,0 ,25,0 ,21.4,0 ,48,0 ,20.7,0 ,18.4,0
2003/11/4 13:00,16.7,0 ,23,0 ,21.5,0 ,50,0 ,20.6,0 ,18.5,0
2003/11/4 13:15,16.6,0 ,22,0 ,21.4,0 ,46,0 ,20.5,0 ,18.5,0
2003/11/4 13:30,16.5,0 ,21,0 ,21.5,0 ,47,0 ,20.4,0 ,18.5,0
2003/11/4 13:45,16.6,0 ,22,0 ,21.3,0 ,45,0 ,20.4,0 ,18.6,0
2003/11/4 14:00,16.5,0 ,23,0 ,21.4,0 ,46,0 ,20.3,0 ,18.6,0
2003/11/4 14:15,16.5,0 ,23,0 ,21.3,0 ,44,0 ,20.3,0 ,18.7,0
2003/11/4 14:30,16.4,0 ,22,0 ,21.4,0 ,47,0 ,20.2,0 ,18.7,0
2003/11/4 14:45,16.4,0 ,23,0 ,21.2,0 ,44,0 ,20.2,0 ,18.8,0
2003/11/4 15:00,16.3,0 ,23,0 ,21.3,0 ,46,0 ,20.2,0 ,18.8,0
2003/11/4 15:15,16.1,0 ,24,0 ,21.1,0 ,43,0 ,20.1,0 ,18.8,0
2003/11/4 15:30,16,0 ,24,0 ,21.3,0 ,45,0 ,20.1,0 ,18.9,0
2003/11/4 15:45,15.8,0 ,24,0 ,21,0 ,43,0 ,20,0 ,18.9,0
2003/11/4 16:00,15.7,0 ,24,0 ,21.2,0 ,45,0 ,20,0 ,18.9,0
2003/11/4 16:15,15.6,0 ,25,0 ,21,0 ,43,0 ,20,0 ,19,0
2003/11/4 16:30,15.3,0 ,25,0 ,21.1,0 ,46,0 ,20,0 ,19,0
2003/11/4 16:45,15,0 ,26,0 ,21,0 ,44,0 ,19.9,0 ,19,0
2003/11/4 17:00,14.7,0 ,26,0 ,21.1,0 ,46,0 ,19.9,0 ,19.1,0
2003/11/4 17:15,14.5,0 ,27,0 ,20.9,0 ,44,0 ,19.9,0 ,19.1,0
2003/11/4 17:30,14.3,0 ,28,0 ,21,0 ,46,0 ,19.8,0 ,19.1,0
2003/11/4 17:45,14.2,0 ,30,0 ,20.8,0 ,43,0 ,19.8,0 ,19.1,0
2003/11/4 18:00,14,0 ,32,0 ,21,0 ,45,0 ,19.8,0 ,19.2,0
2003/11/4 18:15,13.8,0 ,33,0 ,20.8,0 ,43,0 ,19.7,0 ,19.2,0
2003/11/4 18:30,13.7,0 ,33,0 ,20.9,0 ,45,0 ,19.9,0 ,19.2,0
2003/11/4 18:45,13.7,0 ,37,0 ,20.7,0 ,44,0 ,20,0 ,19.2,0
2003/11/4 19:00,12.8,0 ,41,0 ,22,0 ,46,0 ,20.1,0 ,19.3,0
2003/11/4 19:15,11.5,0 ,47,0 ,22.6,0 ,41,0 ,20.6,0 ,19.3,0
2003/11/4 19:30,10.6,0 ,52,0 ,23.2,0 ,45,0 ,21.2,0 ,19.3,0
2003/11/4 19:45,10.7,0 ,51,0 ,22.4,0 ,48,0 ,21.4,0 ,19.3,0
2003/11/4 20:00,11,0 ,50,0 ,22.3,0 ,55,0 ,21.5,0 ,17.3,0
2003/11/4 20:15,11,0 ,50,0 ,22.1,0 ,51,0 ,21.6,0 ,17.3,0
2003/11/4 20:30,11.1,0 ,49,0 ,22.2,0 ,64,0 ,21.8,0 ,17.4,0
2003/11/4 20:45,11.1,0 ,51,0 ,21.9,0 ,58,0 ,21.8,0 ,17.5,0
2003/11/4 21:00,11,0 ,52,0 ,21.9,0 ,61,0 ,21.7,0 ,17.6,0
2003/11/4 21:15,10.8,0 ,53,0 ,21.8,0 ,58,0 ,21.7,0 ,17.6,0
2003/11/4 21:30,10.6,0 ,54,0 ,21.9,0 ,62,0 ,21.8,0 ,17.7,0
2003/11/4 21:45,10.4,0 ,55,0 ,21.8,0 ,60,0 ,21.8,0 ,17.8,0
2003/11/4 22:00,10.3,0 ,55,0 ,21.9,0 ,63,0 ,21.9,0 ,17.9,0
2003/11/4 22:15,9.9,0 ,59,0 ,21.7,0 ,60,0 ,21.8,0 ,15.6,0
2003/11/4 22:30,9.5,0 ,63,0 ,21.7,0 ,63,0 ,21.8,0 ,15.8,0
2003/11/4 22:45,9.2,0 ,62,0 ,21.5,0 ,61,0 ,21.7,0 ,15.9,0
2003/11/4 23:00,9,0 ,61,0 ,21.5,0 ,63,0 ,21.7,0 ,16,0
2003/11/4 23:15,8.9,0 ,61,0 ,21.3,0 ,59,0 ,21.6,0 ,16.1,0
2003/11/4 23:30,8.8,0 ,61,0 ,21.3,0 ,60,0 ,21.5,0 ,16.2,0
2003/11/4 23:45,8.7,0 ,62,0 ,21.2,0 ,56,0 ,21.4,0 ,16.3,0
2003/11/5 0:00,8.4,0 ,63,0 ,21.2,0 ,58,0 ,21.3,0 ,16.4,0
2003/11/5 0:15,8.3,0 ,64,0 ,21.1,0 ,54,0 ,21.3,0 ,16.5,0
2003/11/5 0:30,8.2,0 ,64,0 ,21,0 ,56,0 ,21.2,0 ,16.6,0
2003/11/5 0:45,8.1,0 ,65,0 ,21,0 ,53,0 ,21.1,0 ,16.7,0
2003/11/5 1:00,7.9,0 ,65,0 ,21,0 ,55,0 ,21.1,0 ,16.8,0
2003/11/5 1:15,7.7,0 ,66,0 ,20.9,0 ,52,0 ,21,0 ,16.9,0
2003/11/5 1:30,7.6,0 ,67,0 ,20.9,0 ,54,0 ,20.9,0 ,17,0
2003/11/5 1:45,7.5,0 ,69,0 ,20.8,0 ,51,0 ,20.9,0 ,17.1,0
2003/11/5 2:00,7.4,0 ,70,0 ,20.9,0 ,53,0 ,20.8,0 ,17.2,0
2003/11/5 2:15,7.3,0 ,68,0 ,20.7,0 ,50,0 ,20.7,0 ,17.2,0
2003/11/5 2:30,7.3,0 ,66,0 ,20.8,0 ,52,0 ,20.6,0 ,17.3,0
2003/11/5 2:45,7.2,0 ,67,0 ,20.7,0 ,49,0 ,20.6,0 ,17.4,0
2003/11/5 3:00,6.9,0 ,67,0 ,20.7,0 ,51,0 ,20.5,0 ,17.4,0
2003/11/5 3:15,6.8,0 ,69,0 ,20.6,0 ,49,0 ,20.5,0 ,17.5,0
2003/11/5 3:30,6.7,0 ,70,0 ,20.6,0 ,51,0 ,20.4,0 ,17.5,0
2003/11/5 3:45,6.5,0 ,71,0 ,20.6,0 ,48,0 ,20.3,0 ,17.6,0
2003/11/5 4:00,6.4,0 ,71,0 ,20.6,0 ,50,0 ,20.3,0 ,17.6,0
2003/11/5 4:15,6.2,0 ,71,0 ,20.5,0 ,48,0 ,20.2,0 ,17.7,0
2003/11/5 4:30,6.1,0 ,70,0 ,20.5,0 ,50,0 ,20.1,0 ,17.7,0
2003/11/5 4:45,6.1,0 ,72,0 ,20.4,0 ,48,0 ,20.1,0 ,17.8,0
2003/11/5 5:00,5.8,0 ,74,0 ,20.5,0 ,50,0 ,20.1,0 ,17.8,0
2003/11/5 5:15,5.7,0 ,74,0 ,20.3,0 ,49,0 ,20,0 ,17.9,0
2003/11/5 5:30,5.8,0 ,74,0 ,20.5,0 ,51,0 ,20,0 ,17,0
2003/11/5 5:45,4.9,0 ,79,0 ,21.6,0 ,48,0 ,20.2,0 ,16.9,0